Location: N�rnberg
(49.4489°N, 11.0797°E)
Time: 07:25:18
(UTC+02:00)

ISS - Visible Passes

Search period start: 29 March 2017 00:00
Search period end: 08 April 2017 00:00
Orbit: 399 x 409 km, 51.6° (Epoch: 29 March)

Date Brightness Start Highest point End Pass type
(mag) Time Alt. Az. Time Alt. Az. Time Alt. Az.
29 Mar -3.6 21:42:18 10° WSW 21:45:05 58° SSW 21:45:05 58° SSW visible
30 Mar -3.5 20:50:05 10° SW 20:53:13 45° SSE 20:55:19 18° E visible
30 Mar -1.8 22:26:24 10° W 22:28:00 26° W 22:28:00 26° W visible
31 Mar -3.8 21:33:57 10° WSW 21:37:13 78° NNW 21:38:03 47° ENE visible
31 Mar -0.5 23:10:39 10° WNW 23:10:43 10° WNW 23:10:43 10° WNW visible
01 Apr -3.9 20:41:33 10° WSW 20:44:48 78° SSE 20:47:57 11° ENE visible
01 Apr -2.6 22:18:10 10° W 22:20:37 42° NW 22:20:37 42° NW visible
02 Apr -3.4 21:25:40 10° W 21:28:55 60° N 21:30:25 28° ENE visible
02 Apr -0.9 23:02:19 10° WNW 23:03:04 16° WNW 23:03:04 16° WNW visible
03 Apr -3.6 20:33:10 10° W 20:36:26 72° NNW 20:39:43 10° ENE visible
03 Apr -3.2 22:09:52 10° WNW 22:12:46 55° NNW 22:12:46 55° NNW visible
04 Apr -3.3 21:17:22 10° W 21:20:35 55° N 21:22:25 23° ENE visible
04 Apr -1.3 22:53:55 10° WNW 22:55:04 20° WNW 22:55:04 20° WNW visible
05 Apr -3.3 20:24:49 10° W 20:28:03 58° N 20:31:18 10° ENE visible
05 Apr -3.8 22:01:27 10° WNW 22:04:40 74° N 22:04:40 74° N visible
06 Apr -3.5 21:08:58 10° WNW 21:12:12 61° N 21:14:16 20° E visible
06 Apr -1.6 22:45:29 10° WNW 22:46:54 23° W 22:46:54 23° W visible
07 Apr -4.0 21:52:58 10° WNW 21:56:14 75° SSW 21:56:28 69° SSE visible
